H1 CPF 2 NER 2025 4 4 9 094 01 glonass142 H2 2001801 9142 45358 2025 4 4 0 0 0 2025 4 7 23 45 0 900 1 1 0 0 0 1 H9 10 0 60769 0.00000 0 -18381798.789 17677743.963 800809.612 10 0 60769 900.00000 0 -18073543.021 17564305.696 3993890.908 10 0 60769 1800.00000 0 -17527893.247 17128990.651 7109462.032 10 0 60769 2700.00000 0 -16796864.475 16350657.285 10087081.995 10 0 60769 3600.00000 0 -15937236.285 15220495.345 12869005.029 10 0 60769 4500.00000 0 -15008031.787 13742615.478 15401296.099 10 0 60769 5400.00000 0 -14067921.250 11934108.111 17634871.025 10 0 60769 6300.00000 0 -13172659.600 9824568.550 19526441.669 10 0 60769 7200.00000 0 -12372665.245 7455107.445 21039348.474 10 0 60769 8100.00000 0 -11710841.485 4876886.962 22144265.078 10 0 60769 9000.00000 0 -11220731.419 2149242.514 22819762.096 10 0 60769 9900.00000 0 -10925083.273 -662533.074 23052719.795 10 0 60769 10800.00000 0 -10834885.906 -3489652.322 22838582.135 10 0 60769 11700.00000 0 -10948914.728 -6262441.967 22181447.451 10 0 60769 12600.00000 0 -11253807.139 -8912991.101 21093993.849 10 0 60769 13500.00000 0 -11724664.571 -11377729.941 19597240.370 10 0 60769 14400.00000 0 -12326156.373 -13599833.327 17720147.799 10 0 60769 15300.00000 0 -13014079.788 -15531349.907 15499066.006 10 0 60769 16200.00000 0 -13737311.079 -17134969.084 12977037.531 10 0 60769 17100.00000 0 -14440066.267 -18385352.564 10202969.968 10 0 60769 18000.00000 0 -15064376.624 -19269975.128 7230692.405 10 0 60769 18900.00000 0 -15552674.604 -19789439.659 4117913.674 10 0 60769 19800.00000 0 -15850380.881 -19957253.331 925102.308 10 0 60769 20700.00000 0 -15908382.637 -19799074.522 -2285689.946 10 0 60769 21600.00000 0 -15685297.492 -19351462.376 -5452037.890 10 0 60769 22500.00000 0 -15149426.290 -18660182.040 -8512361.848 10 0 60769 23400.00000 0 -14280310.856 -17778137.519 -11407131.371 10 0 60769 24300.00000 0 -13069829.575 -16763019.962 -14080029.524 10 0 60769 25200.00000 0 -11522783.072 -15674771.271 -16479054.358 10 0 60769 26100.00000 0 -9656943.972 -14572970.740 -18557535.508 10 0 60769 27000.00000 0 -7502567.332 -13514255.576 -20275045.740 10 0 60769 27900.00000 0 -5101381.183 -12549884.546 -21598189.475 10 0 60769 28800.00000 0 -2505098.512 -11723547.751 -22501252.941 10 0 60769 29700.00000 0 226487.880 -11069514.865 -22966703.459 10 0 60769 30600.00000 0 3027748.765 -10611199.713 -22985528.406 10 0 60769 31500.00000 0 5829707.098 -10360201.273 -22557407.585 10 0 60769 32400.00000 0 8562668.692 -10315861.016 -21690715.952 10 0 60769 33300.00000 0 11158885.945 -10465354.614 -20402356.914 10 0 60769 34200.00000 0 13555144.202 -10784313.490 -18717429.642 10 0 60769 35100.00000 0 15695163.715 -11237949.385 -16668737.022 10 0 60769 36000.00000 0 17531717.845 -11782633.848 -14296143.887 10 0 60769 36900.00000 0 19028380.006 -12367865.429 -11645798.142 10 0 60769 37800.00000 0 20160827.471 -12938541.011 -8769230.052 10 0 60769 38700.00000 0 20917648.673 -13437434.854 -5722347.356 10 0 60769 39600.00000 0 21300621.497 -13807780.216 -2564346.037 10 0 60769 40500.00000 0 21324452.252 -13995844.083 643441.802 10 0 60769 41400.00000 0 21015987.661 -13953385.941 3838740.254 10 0 60769 42300.00000 0 20412934.257 -13639896.439 6959538.619 10 0 60769 43200.00000 0 19562140.200 -13024521.217 9945293.447 10 0 60769 44100.00000 0 18517512.684 -12087588.492 12738100.225 10 0 60769 45000.00000 0 17337659.186 -10821675.746 15283812.051 10 0 60769 45900.00000 0 16083352.065 -9232170.241 17533083.970 10 0 60769 46800.00000 0 14814923.041 -7337299.232 19442323.241 10 0 60769 47700.00000 0 13589696.711 -5167627.849 20974527.819 10 0 60769 48600.00000 0 12459570.255 -2765044.663 22099997.556 10 0 60769 49500.00000 0 11468840.127 -181276.059 22796905.154 10 0 60769 50400.00000 0 10652366.067 2524010.054 23051716.451 10 0 60769 51300.00000 0 10034148.606 5285433.771 22859452.376 10 0 60769 52200.00000 0 9626379.078 8034374.928 22223787.707 10 0 60769 53100.00000 0 9429001.500 10701585.826 21156984.574 10 0 60769 54000.00000 0 9429804.533 13219837.874 19679661.624 10 0 60769 54900.00000 0 9605039.703 15526493.445 17820402.554 10 0 60769 55800.00000 0 9920540.154 17565896.921 15615210.765 10 0 60769 56700.00000 0 10333293.255 19291486.140 13106819.708 10 0 60769 57600.00000 0 10793401.221 20667536.641 10343871.318 10 0 60769 58500.00000 0 11246347.392 21670466.067 7379977.702 10 0 60769 59400.00000 0 11635472.631 22289644.195 4272683.685 10 0 60769 60300.00000 0 11904557.074 22527674.592 1082350.060 10 0 60769 61200.00000 0 12000397.627 22400136.013 -2129020.713 10 0 60769 62100.00000 0 11875271.428 21934794.412 -5298993.214 10 0 60769 63000.00000 0 11489180.023 21170318.836 -8365918.168 10 0 60769 63900.00000 0 10811778.081 20154555.556 -11270137.455 10 0 60769 64800.00000 0 9823903.705 18942433.552 -13955150.840 10 0 60769 65700.00000 0 8518644.245 17593590.111 -16368721.029 10 0 60769 66600.00000 0 6901891.158 16169817.167 -18463894.861 10 0 60769 67500.00000 0 4992359.180 14732436.459 -20199920.393 10 0 60769 68400.00000 0 2821067.659 13339714.431 -21543041.784 10 0 60769 69300.00000 0 430304.709 12044425.956 -22467156.490 10 0 60769 70200.00000 0 -2127883.434 10891669.331 -22954322.140 10 0 60769 71100.00000 0 -4793615.544 9917024.242 -22995103.491 10 0 60769 72000.00000 0 -7501431.382 9145129.634 -22588753.019 10 0 60769 72900.00000 0 -10182787.047 8588740.627 -21743221.986 10 0 60769 73800.00000 0 -12768686.226 8248303.261 -20475001.989 10 0 60769 74700.00000 0 -15192338.193 8112064.011 -18808800.338 10 0 60769 75600.00000 0 -17391732.307 8156708.467 -16777055.670 10 0 60769 76500.00000 0 -19312022.290 8348501.248 -14419303.342 10 0 60769 77400.00000 0 -20907621.390 8644878.143 -11781403.025 10 0 60769 78300.00000 0 -22143921.740 8996422.411 -8914643.633 10 0 60769 79200.00000 0 -22998566.879 9349140.987 -5874743.152 10 0 60769 80100.00000 0 -23462225.157 9646943.724 -2720763.061 10 0 60769 81000.00000 0 -23538832.708 9834220.296 486041.244 10 0 60769 81900.00000 0 -23245296.938 9858405.309 3683411.396 10 0 60769 82800.00000 0 -22610674.104 9672422.818 6809294.858 10 0 60769 83700.00000 0 -21674856.594 9236906.617 9803047.938 10 0 60769 84600.00000 0 -20486825.948 8522102.272 12606609.562 10 0 60769 85500.00000 0 -19102545.674 7509370.360 15165623.108 10 0 60770 0.00000 0 -17582582.886 6192227.382 17430484.712 10 0 60770 900.00000 0 -15989557.787 4576879.258 19357299.373 10 0 60770 1800.00000 0 -14385529.772 2682226.179 20908724.071 10 0 60770 2700.00000 0 -12829426.436 539335.319 22054686.364 10 0 60770 3600.00000 0 -11374624.363 -1809596.017 22772962.247 10 0 60770 4500.00000 0 -10066781.251 -4312745.563 23049604.013 10 0 60770 5400.00000 0 -8942009.199 -6910578.265 22879210.096 10 0 60770 6300.00000 0 -8025464.692 -9538087.536 22265031.887 10 0 60770 7200.00000 0 -7330413.472 -12127273.933 21218915.355 10 0 60770 8100.00000 0 -6857808.880 -14609759.747 19761078.171 10 0 60770 9000.00000 0 -6596400.960 -16919432.084 17919725.998 10 0 60770 9900.00000 0 -6523371.599 -18995005.512 15730514.457 10 0 60770 10800.00000 0 -6605469.034 -20782398.270 13235866.251 10 0 60770 11700.00000 0 -6800594.076 -22236823.401 10484155.712 10 0 60770 12600.00000 0 -7059771.335 -23324507.597 7528775.759 10 0 60770 13500.00000 0 -7329422.262 -24023965.737 4427104.811 10 0 60770 14400.00000 0 -7553843.803 -24326777.524 1239393.361 10 0 60770 15300.00000 0 -7677787.446 -24237833.289 -1972408.100 10 0 60770 16200.00000 0 -7649028.842 -23775038.370 -5145856.729 10 0 60770 17100.00000 0 -7420818.289 -22968488.336 -8219236.537 10 0 60770 18000.00000 0 -6954107.206 -21859149.732 -11132764.677 10 0 60770 18900.00000 0 -6219455.061 -20497102.029 -13829760.601 10 0 60770 19800.00000 0 -5198534.717 -18939415.056 -16257754.595 10 0 60770 20700.00000 0 -3885171.173 -17247751.659 -18369513.501 10 0 60770 21600.00000 0 -2285868.470 -15485796.808 -20123963.222 10 0 60770 22500.00000 0 -419801.230 -13716621.588 -21486989.871 10 0 60770 23400.00000 0 1681730.048 -12000093.042 -22432103.920 10 0 60770 24300.00000 0 3976358.176 -10390438.635 -22940954.605 10 0 60770 25200.00000 0 6412179.563 -8934067.279 -23003684.835 10 0 60770 26100.00000 0 8929692.391 -7667737.884 -22619120.024 10 0 60770 27000.00000 0 11464062.394 -6617151.493 -21794787.495 10 0 60770 27900.00000 0 13947622.286 -5796025.102 -20546766.324 10 0 60770 28800.00000 0 16312500.986 -5205684.918 -18899370.781 10 0 60770 29700.00000 0 18493273.437 -4835194.890 -16884673.636 10 0 60770 30600.00000 0 20429520.874 -4662013.792 -14541878.699 10 0 60770 31500.00000 0 22068195.058 -4653151.914 -11916554.891 10 0 60770 32400.00000 0 23365688.214 -4766777.376 -9059746.838 10 0 60770 33300.00000 0 24289522.695 -4954203.152 -6026979.465 10 0 60770 34200.00000 0 24819590.310 -5162169.897 -2877176.158 10 0 60770 35100.00000 0 24948890.183 -5335327.257 328488.151 10 0 60770 36000.00000 0 24683735.068 -5418808.034 3527776.408 10 0 60770 36900.00000 0 24043418.358 -5360785.821 6658597.907 10 0 60770 37800.00000 0 23059356.630 -5114907.552 9660212.126 10 0 60770 38700.00000 0 21773744.518 -4642497.829 12474404.495 10 0 60770 39600.00000 0 20237778.941 -3914441.710 15046611.326 10 0 60770 40500.00000 0 18509527.568 -2912666.230 17326972.411 10 0 60770 41400.00000 0 16651530.924 -1631157.873 19271291.417 10 0 60770 42300.00000 0 14728238.346 -76472.683 20841886.067 10 0 60770 43200.00000 0 12803384.577 1732283.195 22008312.482 10 0 60770 44100.00000 0 10937415.827 3764002.728 22747950.387 10 0 60770 45000.00000 0 9185071.942 5976635.273 23046438.551 10 0 60770 45900.00000 0 7593224.498 8318709.227 22897952.515 10 0 60770 46800.00000 0 6199060.006 10731258.185 22305319.477 10 0 60770 47700.00000 0 5028683.077 13150071.982 21279968.012 10 0 60770 48600.00000 0 4096197.017 15508180.460 19841713.214 10 0 60770 49500.00000 0 3403299.603 17738467.966 18018380.737 10 0 60770 50400.00000 0 2939410.507 19776310.770 15845276.139 10 0 60770 51300.00000 0 2682324.646 21562128.312 13364508.842 10 0 60770 52200.00000 0 2599363.901 23043742.237 10624182.815 10 0 60770 53100.00000 0 2648978.535 24178444.756 7677468.886 10 0 60770 54000.00000 0 2782730.702 24934689.612 4581576.058 10 0 60770 54900.00000 0 2947576.034 25293334.390 1396641.469 10 0 60770 55800.00000 0 3088346.426 25248381.517 -1815439.385 10 0 60770 56700.00000 0 3150328.361 24807186.292 -4992219.158 10 0 60770 57600.00000 0 3081826.751 23990122.739 -8071917.884 10 0 60770 58500.00000 0 2836604.690 22829720.974 -10994630.482 10 0 60770 59400.00000 0 2376094.637 21369312.231 -13703498.272 10 0 60770 60300.00000 0 1671286.120 19661238.522 -16145820.996 10 0 60770 61200.00000 0 704208.846 17764702.354 -18274087.048 10 0 60770 62100.00000 0 -531052.796 15743347.084 -20046901.429 10 0 60770 63000.00000 0 -2027857.892 13662669.708 -21429793.177 10 0 60770 63900.00000 0 -3767042.172 11587374.794 -22395886.474 10 0 60770 64800.00000 0 -5717485.881 9578780.479 -22926422.583 10 0 60770 65700.00000 0 -7837193.533 7692384.943 -23011122.678 10 0 60770 66600.00000 0 -10074841.127 5975694.842 -22648384.876 10 0 60770 67500.00000 0 -12371726.784 4466405.855 -21845311.926 10 0 60770 68400.00000 0 -14664043.871 3191010.526 -20617569.330 10 0 60770 69300.00000 0 -16885382.081 2163890.545 -18989076.840 10 0 60770 70200.00000 0 -18969352.353 1386930.123 -16991539.490 10 0 60770 71100.00000 0 -20852226.335 849665.215 -14663827.351 10 0 60770 72000.00000 0 -22475480.308 529960.782 -12051216.158 10 0 60770 72900.00000 0 -23788137.490 395186.107 -9204503.679 10 0 60770 73800.00000 0 -24748811.042 403837.208 -6179019.131 10 0 60770 74700.00000 0 -25327362.557 507536.613 -3033545.164 10 0 60770 75600.00000 0 -25506107.030 653324.932 170826.369 10 0 60770 76500.00000 0 -25280514.310 786146.427 3371882.297 10 0 60770 77400.00000 0 -24659378.221 851422.750 6507496.241 10 0 60770 78300.00000 0 -23664446.901 797605.480 9516833.289 10 0 60770 79200.00000 0 -22329530.436 578599.143 12341527.716 10 0 60770 80100.00000 0 -20699123.711 155952.096 14926810.978 10 0 60770 81000.00000 0 -18826602.480 -499277.434 17222568.375 10 0 60770 81900.00000 0 -16772068.239 -1405059.048 19184304.439 10 0 60770 82800.00000 0 -14599931.844 -2567393.554 20773998.934 10 0 60770 83700.00000 0 -12376336.342 -3979824.403 21960837.722 10 0 60770 84600.00000 0 -10166525.777 -5623478.516 22721805.077 10 0 60770 85500.00000 0 -8032268.787 -7467635.778 23042126.699 10 0 60771 0.00000 0 -6029443.367 -9470804.501 22915555.369 10 0 60771 900.00000 0 -4205881.216 -11582260.490 22344493.837 10 0 60771 1800.00000 0 -2599562.994 -13743984.352 21339952.728 10 0 60771 2700.00000 0 -1237235.080 -15892921.342 19921343.715 10 0 60771 3600.00000 0 -133507.365 -17963468.336 18116111.312 10 0 60771 4500.00000 0 709532.041 -19890086.415 15959209.614 10 0 60771 5400.00000 0 1302169.451 -21609930.724 13492433.087 10 0 60771 6300.00000 0 1666392.184 -23065388.294 10763613.432 10 0 60771 7200.00000 0 1834717.690 -24206417.777 7825697.267 10 0 60771 8100.00000 0 1848574.818 -24992592.959 4735721.887 10 0 60771 9000.00000 0 1756305.830 -25394763.833 1553708.667 10 0 60771 9900.00000 0 1610874.014 -25396264.860 -1658504.398 10 0 60771 10800.00000 0 1467374.405 -24993618.838 -4838468.025 10 0 60771 11700.00000 0 1380453.809 -24196706.063 -7924340.890 10 0 60771 12600.00000 0 1401750.265 -23028390.953 -10856098.329 10 0 60771 13500.00000 0 1577461.511 -21523621.381 -13576706.187 10 0 60771 14400.00000 0 1946146.530 -19728038.218 -16033236.277 10 0 60771 15300.00000 0 2536854.425 -17696153.399 -18177901.050 10 0 60771 16200.00000 0 3367660.909 -15489172.966 -19968986.924 10 0 60771 17100.00000 0 4444675.362 -13172556.469 -21371667.907 10 0 60771 18000.00000 0 5761561.396 -10813415.013 -22358683.600 10 0 60771 18900.00000 0 7299592.127 -8477856.857 -22910868.587 10 0 60771 19800.00000 0 9028238.714 -6228391.339 -23017523.188 10 0 60771 20700.00000 0 10906268.242 -4121499.257 -22676618.650 10 0 60771 21600.00000 0 12883305.603 -2205470.560 -21894833.164 10 0 60771 22500.00000 0 14901794.479 -518598.780 -20687418.243 10 0 60771 23400.00000 0 16899275.785 912193.452 -19077898.301 10 0 60771 24300.00000 0 18810888.528 2072241.685 -17097609.397 10 0 60771 25200.00000 0 20571988.691 2959504.096 -14785086.193 10 0 60771 26100.00000 0 22120776.651 3584389.422 -12185309.133 10 0 60771 27000.00000 0 23400823.247 3969057.300 -9348826.588 10 0 60771 27900.00000 0 24363388.799 4146222.060 -6330769.144 10 0 60771 28800.00000 0 24969437.990 4157511.887 -3189775.460 10 0 60771 29700.00000 0 25191266.314 4051453.944 13149.155 10 0 60771 30600.00000 0 25013670.116 3881171.721 3215818.970 10 0 60771 31500.00000 0 24434611.449 3701892.823 6356075.472 10 0 60771 32400.00000 0 23465350.209 3568373.287 9372992.719 10 0 60771 33300.00000 0 22130038.352 3532347.776 12208056.954 10 0 60771 34200.00000 0 20464793.496 3640113.695 14806297.571 10 0 60771 35100.00000 0 18516290.873 3930351.397 17117347.818 10 0 60771 36000.00000 0 16339932.484 4432272.550 19096415.153 10 0 60771 36900.00000 0 13997669.732 5164174.825 20705143.065 10 0 60771 37800.00000 0 11555569.908 6132463.962 21912348.460 10 0 60771 38700.00000 0 9081227.168 7331184.778 22694621.081 10 0 60771 39600.00000 0 6641124.883 8742081.485 23036774.078 10 0 60771 40500.00000 0 4298057.981 10335185.777 22932137.506 10 0 60771 41400.00000 0 2108721.248 12069909.292 22382689.357 10 0 60771 42300.00000 0 121562.700 13896596.122 21399021.507 10 0 60771 43200.00000 0 -1625009.822 15758471.986 20000140.920 10 0 60771 44100.00000 0 -3103995.196 17593910.031 18213109.247 10 0 60771 45000.00000 0 -4300682.558 19338919.804 16072526.990 10 0 60771 45900.00000 0 -5213015.671 20929756.342 13619871.206 10 0 60771 46800.00000 0 -5851423.413 22305540.805 10902698.608 10 0 60771 47700.00000 0 -6238123.947 23410783.149 7973728.684 10 0 60771 48600.00000 0 -6405932.206 24197700.890 4889823.990 10 0 60771 49500.00000 0 -6396621.327 24628236.132 1710887.025 10 0 60771 50400.00000 0 -6258907.616 24675685.374 -1501304.820 10 0 60771 51300.00000 0 -6046144.777 24325872.575 -4684303.366 10 0 60771 52200.00000 0 -5813825.647 23577815.202 -7776208.841 10 0 60771 53100.00000 0 -5616998.041 22443854.237 -10716879.699 10 0 60771 54000.00000 0 -5507705.088 20949241.859 -13449108.759 10 0 60771 54900.00000 0 -5532559.465 19131203.470 -15919742.056 10 0 60771 55800.00000 0 -5730555.271 17037512.997 -18080717.939 10 0 60771 56700.00000 0 -6131211.099 14724640.943 -19890005.777 10 0 60771 57600.00000 0 -6753123.754 12255552.638 -21312425.776 10 0 60771 58500.00000 0 -7602994.571 9697248.746 -22320333.887 10 0 60771 59400.00000 0 -8675170.165 7118150.769 -22894158.657 10 0 60771 60300.00000 0 -9951717.671 4585440.496 -23022779.855 10 0 60771 61200.00000 0 -11403031.928 2162464.142 -22703741.811 10 0 60771 62100.00000 0 -12988949.599 -93691.120 -21943297.700 10 0 60771 63000.00000 0 -14660323.939 -2134347.940 -20756284.167 10 0 60771 63900.00000 0 -16360994.429 -3921028.153 -19165828.960 10 0 60771 64800.00000 0 -18030068.983 -5426807.263 -17202897.421 10 0 60771 65700.00000 0 -19604423.154 -6637178.915 -14905686.686 10 0 60771 66600.00000 0 -21021311.630 -7550394.737 -12318879.504 10 0 60771 67500.00000 0 -22220982.476 -8177267.019 -9492772.225 10 0 60771 68400.00000 0 -23149184.430 -8540444.223 -6482294.042 10 0 60771 69300.00000 0 -23759461.913 -8673191.446 -3345936.795 10 0 60771 70200.00000 0 -24015141.424 -8617728.765 -144616.387 10 0 60771 71100.00000 0 -23890925.877 -8423198.895 3059511.745 10 0 60771 72000.00000 0 -23374029.995 -8143351.106 6204259.761 10 0 60771 72900.00000 0 -22464809.200 -7834040.109 9228613.452 10 0 60771 73800.00000 0 -21176855.710 -7550646.194 12073913.667 10 0 60771 74700.00000 0 -19536557.885 -7345525.977 14684990.218 10 0 60771 75600.00000 0 -17582141.269 -7265601.545 17011226.546 10 0 60771 76500.00000 0 -15362231.250 -7350189.718 19007534.994 10 0 60771 77400.00000 0 -12933997.057 -7629162.879 20635224.373 10 0 60771 78300.00000 0 -10360953.897 -8121518.772 21862743.833 10 0 60771 79200.00000 0 -7710513.995 -8834419.544 22666289.373 10 0 60771 80100.00000 0 -5051387.424 -9762740.683 23030261.968 10 0 60771 81000.00000 0 -2450939.603 -10889149.370 22947568.966 10 0 60771 81900.00000 0 27386.055 -12184709.797 22419763.214 10 0 60771 82800.00000 0 2326474.495 -13609991.174 21457017.152 10 0 60771 83700.00000 0 4397675.664 -15116633.265 20077932.073 10 0 60771 84600.00000 0 6202583.686 -16649305.203 18309185.543 10 0 60771 85500.00000 0 7714385.412 -18147976.781 16185022.988 10 0 60772 0.00000 0 8918722.832 -19550407.971 13746602.541 10 0 60772 900.00000 0 9814034.492 -20794753.765 11041203.484 10 0 60772 1800.00000 0 10411360.595 -21822173.559 8121316.137 10 0 60772 2700.00000 0 10733622.506 -22579337.949 5043625.855 10 0 60772 3600.00000 0 10814405.709 -23020725.251 1867913.657 10 0 60772 4500.00000 0 10696298.639 -23110611.138 -1344106.384 10 0 60772 5400.00000 0 10428857.887 -22824666.518 -4529989.942 10 0 60772 6300.00000 0 10066286.429 -22151095.233 -7627781.525 10 0 60772 7200.00000 0 9664923.849 -21091262.471 -10577225.385 10 0 60772 8100.00000 0 9280655.607 -19659786.357 -13320943.905 10 0 60772 9000.00000 0 8966351.938 -17884087.843 -15805559.804 10 0 60772 9900.00000 0 8769445.674 -15803417.033 -17982739.630 10 0 60772 10800.00000 0 8729752.314 -13467396.182 -19810137.781 10 0 60772 11700.00000 0 8877625.283 -10934139.955 -21252222.469 10 0 60772 12600.00000 0 9232524.956 -8268031.302 -22280967.472 10 0 60772 13500.00000 0 9802062.404 -5537245.637 -22876396.413 10 0 60772 14400.00000 0 10581558.608 -2811126.335 -23026969.223 10 0 60772 15300.00000 0 11554138.070 -157520.674 -22729803.645 10 0 60772 16200.00000 0 12691353.163 2359813.260 -21990727.774 10 0 60772 17100.00000 0 13954313.180 4683621.377 -20824162.948 10 0 60772 18000.00000 0 15295270.769 6765290.285 -19252839.453 10 0 60772 18900.00000 0 16659599.196 8566617.928 -17307350.743 10 0 60772 19800.00000 0 17988077.388 10061145.542 -15025554.896 10 0 60772 20700.00000 0 19219386.701 11234996.727 -12451835.048 10 0 60772 21600.00000 0 20292714.404 12087190.092 -9636233.228 10 0 60772 22500.00000 0 21150354.301 12629414.079 -6633474.590 10 0 60772 23400.00000 0 21740194.953 12885275.065 -3501901.200 10 0 60772 24300.00000 0 22017990.745 12889052.006 -302336.385 10 0 60772 25200.00000 0 21949320.073 12684011.539 2903098.008 10 0 60772 26100.00000 0 21511148.236 12320355.898 6052188.115 10 0 60772 27000.00000 0 20692929.205 11852891.240 9083834.655 10 0 60772 27900.00000 0 19497199.890 11338515.571 11939236.102 10 0 60772 28800.00000 0 17939641.858 10833632.789 14563025.456 10 0 60772 29700.00000 0 16048607.670 10391602.147 16904338.835 10 0 60772 30600.00000 0 13864131.342 10060330.688 18917795.637 10 0 60772 31500.00000 0 11436463.785 9880109.928 20564371.852 10 0 60772 32400.00000 0 8824193.637 9881787.609 21812150.403 10 0 60772 33300.00000 0 6092030.829 10085351.218 22636934.723 10 0 60772 34200.00000 0 3308344.061 10498982.708 23022714.412 10 0 60772 35100.00000 0 542553.243 11118624.246 22961974.497 10 0 60772 36000.00000 0 -2137516.140 11928073.576 22455842.610 10 0 60772 36900.00000 0 -4668208.245 12899605.675 21514071.205 10 0 60772 37800.00000 0 -6992436.037 13995095.485 20154854.849 10 0 60772 38700.00000 0 -9061805.910 15167595.700 18404485.481 10 0 60772 39600.00000 0 -10838380.370 16363304.456 16296851.467 10 0 60772 40500.00000 0 -12296006.180 17523841.349 13872789.189 10 0 60772 41400.00000 0 -13421153.167 18588736.978 11179298.725 10 0 60772 42300.00000 0 -14213229.080 19498031.791 8268637.966 10 0 60772 43200.00000 0 -14684357.680 20194875.056 5197312.093 10 0 60772 44100.00000 0 -14858629.732 20628014.187 2024977.618 10 0 60772 45000.00000 0 -14770858.756 20754068.889 -1186717.724 10 0 60772 45900.00000 0 -14464894.427 20539493.296 -4375336.429 10 0 60772 46800.00000 0 -13991565.376 19962142.165 -7478870.167 10 0 60772 47700.00000 0 -13406338.950 19012373.799 -10436951.714 10 0 60772 48600.00000 0 -12766797.659 17693641.930 -13192035.549 10 0 60772 49500.00000 0 -12130039.832 16022550.375 -15690523.369 10 0 60772 50400.00000 0 -11550115.237 14028367.090 -17883811.927 10 0 60772 51300.00000 0 -11075604.806 11752017.077 -19729242.357 10 0 60772 52200.00000 0 -10747447.389 9244595.631 -21190932.275 10 0 60772 53100.00000 0 -10597105.782 6565463.557 -22240474.370 10 0 60772 54000.00000 0 -10645149.780 3780003.510 -22857488.106 10 0 60772 54900.00000 0 -10900316.168 957130.649 -23030014.022 10 0 60772 55800.00000 0 -11359085.333 -1833339.006 -22754743.356 10 0 60772 56700.00000 0 -12005792.306 -4523353.349 -22037078.837 10 0 60772 57600.00000 0 -12813267.449 -7049211.796 -20891025.805 10 0 60772 58500.00000 0 -13743979.696 -9353968.622 -19338915.983 10 0 60772 59400.00000 0 -14751634.071 -11389552.880 -17410969.439 10 0 60772 60300.00000 0 -15783156.082 -13118517.586 -15144703.337 10 0 60772 61200.00000 0 -16780979.248 -14515346.398 -12584199.028 10 0 60772 62100.00000 0 -17685539.236 -15567264.602 -9779241.824 10 0 60772 63000.00000 0 -18437869.325 -16274521.947 -6784350.263 10 0 60772 63900.00000 0 -18982187.597 -16650137.058 -3657713.948 10 0 60772 64800.00000 0 -19268366.612 -16719115.717 -460060.865 10 0 60772 65700.00000 0 -19254181.233 -16517177.419 2746523.532 10 0 60772 66600.00000 0 -18907239.708 -16089045.136 5899802.177 10 0 60772 67500.00000 0 -18206516.460 -15486371.538 8938593.533 10 0 60772 68400.00000 0 -17143421.878 -14765389.978 11803956.455 10 0 60772 69300.00000 0 -15722363.871 -13984389.855 14440329.771 10 0 60772 70200.00000 0 -13960777.276 -13201123.104 16796604.734 10 0 60772 71100.00000 0 -11888619.423 -12470251.062 18827109.993 10 0 60772 72000.00000 0 -9547352.309 -11840938.997 20492490.595 10 0 60772 72900.00000 0 -6988453.109 -11354699.113 21760464.727 10 0 60772 73800.00000 0 -4271514.037 -11043572.238 22606444.347 10 0 60772 74700.00000 0 -1462009.526 -10928724.171 23014008.362 10 0 60772 75600.00000 0 1371177.839 -11019515.302 22975219.762 10 0 60772 76500.00000 0 4158371.304 -11313082.472 22490780.882 10 0 60772 77400.00000 0 6831746.733 -11794450.801 21570023.768 10 0 60772 78300.00000 0 9327903.701 -12437171.180 20230735.538 10 0 60772 79200.00000 0 11590255.364 -13204457.348 18498821.479 10 0 60772 80100.00000 0 13571138.760 -14050775.573 16407811.576 10 0 60772 81000.00000 0 15233558.516 -14923820.925 13998219.069 10 0 60772 81900.00000 0 16552491.879 -15766797.749 11316762.441 10 0 60772 82800.00000 0 17515700.934 -16520908.831 8415465.088 10 0 60772 83700.00000 0 18124018.304 -17127948.564 5350649.441 10 0 60772 84600.00000 0 18391094.575 -17532890.619 2181844.676 10 0 60772 85500.00000 0 18342618.255 -17686360.389 -1029370.811 99